Time,TemperatureF,DewpointF,PressureIn,WindDirection,WindDirectionDegrees,WindSpeedMPH,WindSpeedGustMPH,Humidity,HourlyPrecipIn,Conditions,Clouds,dailyrainin,SoftwareType,DateUTC
2013-05-18 00:01:00,70.7,69.5,29.93,SSE,163,0.0,0.0,96,0.00,RA,,0.00,WeatherDisplay:10.37,2013-05-18 05:01:00,
2013-05-18 00:06:00,70.7,69.5,29.93,SSE,163,0.0,0.0,96,0.00,RA,,0.00,WeatherDisplay:10.37,2013-05-18 05:06:00,
2013-05-18 00:11:00,70.7,69.5,29.93,SSE,163,0.0,0.0,96,0.00,CLR,,0.00,WeatherDisplay:10.37,2013-05-18 05:11:00,
2013-05-18 00:16:00,70.7,69.5,29.93,SSE,163,0.0,0.0,96,0.00,CLR,,0.00,WeatherDisplay:10.37,2013-05-18 05:16:00,
2013-05-18 00:21:00,70.7,69.5,29.93,SSE,163,0.0,0.0,96,0.00,CLR,,0.00,WeatherDisplay:10.37,2013-05-18 05:21:00,
2013-05-18 00:26:00,70.7,69.5,29.93,SSE,163,0.0,0.0,96,0.00,CLR,,0.00,WeatherDisplay:10.37,2013-05-18 05:26:00,
2013-05-18 00:31:00,70.7,69.5,29.93,SSE,163,0.0,0.0,96,0.00,CLR,,0.00,WeatherDisplay:10.37,2013-05-18 05:31:00,
2013-05-18 00:36:00,70.7,69.5,29.93,SSE,163,0.0,0.0,96,0.00,CLR,,0.00,WeatherDisplay:10.37,2013-05-18 05:36:00,
2013-05-18 00:41:00,70.7,69.5,29.93,SSE,163,0.0,0.0,96,0.00,CLR,,0.00,WeatherDisplay:10.37,2013-05-18 05:41:00,
2013-05-18 00:46:00,70.7,69.5,29.93,SSE,163,0.0,0.0,96,0.00,CLR,,0.00,WeatherDisplay:10.37,2013-05-18 05:46:00,
2013-05-18 00:51:00,70.7,69.5,29.93,SSE,163,0.0,0.0,96,0.00,CLR,,0.00,WeatherDisplay:10.37,2013-05-18 05:51:00,
2013-05-18 00:56:00,70.7,69.5,29.93,SSE,163,0.0,0.0,96,0.00,CLR,,0.00,WeatherDisplay:10.37,2013-05-18 05:56:00,
2013-05-18 01:01:00,70.7,69.5,29.93,SSE,163,0.0,0.0,96,0.00,CLR,,0.00,WeatherDisplay:10.37,2013-05-18 06:01:00,
2013-05-18 01:06:00,70.3,70.3,29.90,SSE,163,0.0,0.0,100,0.00,CLR,,0.00,WeatherDisplay:10.37,2013-05-18 06:06:00,
2013-05-18 01:11:00,70.3,70.3,29.90,SSE,163,0.0,0.0,100,0.00,CLR,,0.00,WeatherDisplay:10.37,2013-05-18 06:11:00,
2013-05-18 01:16:00,70.3,70.3,29.90,SSE,163,0.0,0.0,100,0.00,CLR,,0.00,WeatherDisplay:10.37,2013-05-18 06:16:00,
2013-05-18 01:21:00,70.3,70.3,29.90,SSE,163,0.0,0.0,100,0.00,CLR,,0.00,WeatherDisplay:10.37,2013-05-18 06:21:00,
2013-05-18 01:26:00,70.3,70.3,29.90,SSE,163,0.0,0.0,100,0.00,CLR,,0.00,WeatherDisplay:10.37,2013-05-18 06:26:00,
2013-05-18 01:31:00,70.3,70.3,29.90,SSE,163,0.0,0.0,100,0.00,CLR,,0.00,WeatherDisplay:10.37,2013-05-18 06:31:00,
2013-05-18 01:36:00,70.7,70.7,29.90,SSE,163,0.0,0.0,100,0.00,CLR,,0.00,WeatherDisplay:10.37,2013-05-18 06:36:00,
2013-05-18 01:41:00,70.7,70.7,29.90,SSE,163,0.0,0.0,100,0.00,CLR,,0.00,WeatherDisplay:10.37,2013-05-18 06:41:00,
2013-05-18 01:46:00,70.7,70.7,29.90,SSE,163,0.0,0.0,100,0.00,CLR,,0.00,WeatherDisplay:10.37,2013-05-18 06:46:00,
2013-05-18 01:51:00,70.7,70.7,29.90,SSE,163,0.0,0.0,100,0.00,CLR,,0.00,WeatherDisplay:10.37,2013-05-18 06:51:00,
2013-05-18 01:56:00,70.7,70.7,29.90,SSE,163,0.0,0.0,100,0.00,CLR,,0.00,WeatherDisplay:10.37,2013-05-18 06:56:00,
2013-05-18 02:01:00,70.7,70.7,29.90,SSE,163,0.0,0.0,100,0.00,CLR,,0.00,WeatherDisplay:10.37,2013-05-18 07:01:00,
2013-05-18 02:06:00,71.1,71.1,29.90,SSE,163,0.0,0.0,100,0.00,CLR,,0.00,WeatherDisplay:10.37,2013-05-18 07:06:00,
2013-05-18 02:11:00,70.7,70.7,29.90,SSE,163,0.0,0.0,100,0.00,CLR,,0.00,WeatherDisplay:10.37,2013-05-18 07:11:00,
2013-05-18 02:16:00,70.7,70.7,29.90,SSE,163,0.0,0.0,100,0.00,CLR,,0.00,WeatherDisplay:10.37,2013-05-18 07:16:00,
2013-05-18 02:21:00,70.7,70.7,29.90,SSE,163,0.0,0.0,100,0.00,CLR,,0.00,WeatherDisplay:10.37,2013-05-18 07:21:00,
2013-05-18 02:26:00,70.3,70.3,29.90,SSE,163,0.0,0.0,100,0.00,CLR,,0.00,WeatherDisplay:10.37,2013-05-18 07:26:00,
2013-05-18 02:31:00,70.3,70.3,29.90,SSE,163,0.0,0.0,100,0.00,CLR,,0.00,WeatherDisplay:10.37,2013-05-18 07:31:00,
2013-05-18 02:36:00,70.3,70.3,29.90,SSE,163,0.0,0.0,100,0.00,CLR,,0.00,WeatherDisplay:10.37,2013-05-18 07:36:00,
2013-05-18 02:41:00,70.3,70.3,29.90,SSE,163,0.0,0.0,100,0.00,CLR,,0.00,WeatherDisplay:10.37,2013-05-18 07:41:00,
2013-05-18 02:46:00,70.2,70.2,29.90,SSE,163,0.0,0.0,100,0.00,CLR,,0.00,WeatherDisplay:10.37,2013-05-18 07:46:00,
2013-05-18 02:51:00,70.0,70.0,29.90,SSE,163,0.0,0.0,100,0.00,CLR,,0.00,WeatherDisplay:10.37,2013-05-18 07:51:00,
2013-05-18 02:56:00,70.0,70.0,29.90,SSE,163,0.0,0.0,100,0.00,CLR,,0.00,WeatherDisplay:10.37,2013-05-18 07:56:00,
2013-05-18 03:01:00,69.8,69.8,29.90,SSE,163,0.0,0.0,100,0.00,CLR,,0.00,WeatherDisplay:10.37,2013-05-18 08:01:00,
2013-05-18 03:06:00,69.6,69.6,29.90,SSE,163,0.0,0.0,100,0.00,CLR,,0.00,WeatherDisplay:10.37,2013-05-18 08:06:00,
2013-05-18 03:11:00,69.6,69.6,29.90,SSE,163,0.0,0.0,100,0.00,CLR,,0.00,WeatherDisplay:10.37,2013-05-18 08:11:00,
2013-05-18 03:16:00,69.4,69.4,29.90,SSE,163,0.0,0.0,100,0.00,CLR,,0.00,WeatherDisplay:10.37,2013-05-18 08:16:00,
2013-05-18 03:21:00,69.4,69.4,29.90,SSE,163,0.0,0.0,100,0.00,CLR,,0.00,WeatherDisplay:10.37,2013-05-18 08:21:00,
2013-05-18 03:26:00,69.4,69.4,29.90,SSE,163,0.0,0.0,100,0.00,CLR,,0.00,WeatherDisplay:10.37,2013-05-18 08:26:00,
2013-05-18 03:31:00,69.3,69.3,29.90,SSE,163,0.0,0.0,100,0.00,CLR,,0.00,WeatherDisplay:10.37,2013-05-18 08:31:00,
2013-05-18 03:36:00,69.3,69.3,29.90,SSE,163,0.0,0.0,100,0.00,CLR,,0.00,WeatherDisplay:10.37,2013-05-18 08:36:00,
2013-05-18 03:41:00,69.3,69.3,29.90,SSE,163,0.0,0.0,100,0.00,CLR,,0.00,WeatherDisplay:10.37,2013-05-18 08:41:00,
2013-05-18 03:46:00,69.3,69.3,29.90,SSE,163,0.0,0.0,100,0.00,CLR,,0.00,WeatherDisplay:10.37,2013-05-18 08:46:00,
2013-05-18 03:51:00,69.3,69.3,29.90,SSE,163,0.0,0.0,100,0.00,CLR,,0.00,WeatherDisplay:10.37,2013-05-18 08:51:00,
2013-05-18 03:56:00,69.1,69.1,29.90,SSE,163,0.0,0.0,100,0.00,CLR,,0.00,WeatherDisplay:10.37,2013-05-18 08:56:00,
2013-05-18 04:01:00,68.9,68.9,29.90,SSE,163,0.0,0.0,100,0.00,CLR,,0.00,WeatherDisplay:10.37,2013-05-18 09:01:00,
2013-05-18 04:06:00,69.1,69.1,29.90,SSE,163,0.0,0.0,100,0.00,CLR,,0.00,WeatherDisplay:10.37,2013-05-18 09:06:00,
2013-05-18 04:11:00,69.3,69.3,29.90,SSE,163,0.0,0.0,100,0.00,CLR,,0.00,WeatherDisplay:10.37,2013-05-18 09:11:00,
2013-05-18 04:16:00,69.4,69.4,29.90,SSE,163,0.0,0.0,100,0.00,CLR,,0.00,WeatherDisplay:10.37,2013-05-18 09:16:00,
2013-05-18 04:21:00,69.4,69.4,29.90,SSE,163,0.0,0.0,100,0.00,CLR,,0.00,WeatherDisplay:10.37,2013-05-18 09:21:00,
2013-05-18 04:26:00,69.4,69.4,29.90,SSE,163,0.0,0.0,100,0.00,CLR,,0.00,WeatherDisplay:10.37,2013-05-18 09:26:00,
2013-05-18 04:31:00,69.3,69.3,29.90,SSE,163,0.0,0.0,100,0.00,CLR,,0.00,WeatherDisplay:10.37,2013-05-18 09:31:00,
2013-05-18 04:36:00,69.3,69.3,29.90,SSE,163,0.0,0.0,100,0.00,CLR,,0.00,WeatherDisplay:10.37,2013-05-18 09:36:00,
2013-05-18 04:41:00,69.1,69.1,29.90,SSE,163,0.0,0.0,100,0.00,CLR,,0.00,WeatherDisplay:10.37,2013-05-18 09:41:00,
2013-05-18 04:46:00,69.1,69.1,29.90,SSE,163,0.0,0.0,100,0.00,CLR,,0.00,WeatherDisplay:10.37,2013-05-18 09:46:00,
2013-05-18 04:51:00,69.1,69.1,29.90,SSE,163,0.0,0.0,100,0.00,CLR,,0.00,WeatherDisplay:10.37,2013-05-18 09:51:00,
2013-05-18 04:56:00,69.1,69.1,29.90,SSE,163,0.0,0.0,100,0.00,CLR,,0.00,WeatherDisplay:10.37,2013-05-18 09:56:00,
2013-05-18 05:01:00,69.1,69.1,29.90,SSE,163,0.0,0.0,100,0.00,CLR,,0.00,WeatherDisplay:10.37,2013-05-18 10:01:00,
2013-05-18 05:06:00,68.9,68.9,29.90,SSE,163,0.0,0.0,100,0.00,CLR,,0.00,WeatherDisplay:10.37,2013-05-18 10:06:00,
2013-05-18 05:11:00,68.7,68.7,29.90,SSE,163,0.0,0.0,100,0.00,CLR,,0.00,WeatherDisplay:10.37,2013-05-18 10:11:00,
2013-05-18 05:16:00,68.5,68.5,29.90,SSE,163,0.0,0.0,100,0.00,CLR,,0.00,WeatherDisplay:10.37,2013-05-18 10:16:00,
2013-05-18 05:21:00,68.5,68.5,29.90,SSE,163,0.0,0.0,100,0.00,CLR,,0.00,WeatherDisplay:10.37,2013-05-18 10:21:00,
2013-05-18 05:26:00,68.5,68.5,29.90,SSE,163,0.0,0.0,100,0.00,CLR,,0.00,WeatherDisplay:10.37,2013-05-18 10:26:00,
2013-05-18 05:31:00,68.5,68.5,29.90,SSE,163,0.0,0.0,100,0.00,CLR,,0.00,WeatherDisplay:10.37,2013-05-18 10:31:00,
2013-05-18 05:36:00,68.5,68.5,29.90,SSE,163,0.0,0.0,100,0.00,CLR,,0.00,WeatherDisplay:10.37,2013-05-18 10:36:00,
2013-05-18 05:41:00,68.4,68.4,29.90,SSE,163,0.0,0.0,100,0.00,CLR,,0.00,WeatherDisplay:10.37,2013-05-18 10:41:00,
2013-05-18 05:46:00,68.4,68.4,29.90,SSE,163,0.0,0.0,100,0.00,CLR,,0.00,WeatherDisplay:10.37,2013-05-18 10:46:00,
2013-05-18 05:51:00,68.4,68.4,29.90,SSE,163,0.0,0.0,100,0.00,CLR,,0.00,WeatherDisplay:10.37,2013-05-18 10:51:00,
2013-05-18 05:56:00,68.4,68.4,29.90,SSE,163,0.0,0.0,100,0.00,CLR,,0.00,WeatherDisplay:10.37,2013-05-18 10:56:00,
2013-05-18 06:01:00,68.4,68.4,29.90,SSE,163,0.0,0.0,100,0.00,CLR,,0.00,WeatherDisplay:10.37,2013-05-18 11:01:00,
2013-05-18 06:06:00,68.4,68.4,29.90,SSE,163,0.0,0.0,100,0.00,CLR,,0.00,WeatherDisplay:10.37,2013-05-18 11:06:00,
2013-05-18 06:11:00,68.5,68.5,29.90,SSE,163,0.0,0.0,100,0.00,CLR,,0.00,WeatherDisplay:10.37,2013-05-18 11:11:00,
2013-05-18 06:16:00,68.5,68.5,29.90,SSE,163,0.0,0.0,100,0.00,CLR,,0.00,WeatherDisplay:10.37,2013-05-18 11:16:00,
2013-05-18 06:21:00,68.5,68.5,29.93,SSE,163,0.0,0.0,100,0.00,CLR,,0.00,WeatherDisplay:10.37,2013-05-18 11:21:00,
2013-05-18 06:26:00,68.5,68.5,29.93,SSE,163,0.0,0.0,100,0.00,CLR,,0.00,WeatherDisplay:10.37,2013-05-18 11:26:00,
2013-05-18 06:31:00,68.7,68.7,29.93,SSE,163,0.0,0.0,100,0.00,CLR,,0.00,WeatherDisplay:10.37,2013-05-18 11:31:00,
2013-05-18 06:36:00,68.7,68.7,29.93,SSE,163,0.0,0.0,100,0.00,CLR,,0.00,WeatherDisplay:10.37,2013-05-18 11:36:00,
2013-05-18 06:41:00,68.7,68.7,29.93,SSE,163,0.0,0.0,100,0.00,CLR,,0.00,WeatherDisplay:10.37,2013-05-18 11:41:00,
2013-05-18 06:46:00,68.9,68.9,29.93,SSE,163,0.0,0.0,100,0.00,CLR,,0.00,WeatherDisplay:10.37,2013-05-18 11:46:00,
2013-05-18 06:51:00,69.1,69.1,29.93,SSE,163,0.0,0.0,100,0.00,CLR,,0.00,WeatherDisplay:10.37,2013-05-18 11:51:00,
2013-05-18 06:56:00,69.3,69.3,29.93,SSE,163,0.0,0.0,100,0.00,CLR,,0.00,WeatherDisplay:10.37,2013-05-18 11:56:00,
2013-05-18 07:01:00,69.3,69.3,29.93,SSE,163,0.0,0.0,100,0.00,CLR,,0.00,WeatherDisplay:10.37,2013-05-18 12:01:00,
2013-05-18 07:06:00,69.4,69.4,29.93,SSE,163,0.0,0.0,100,0.00,CLR,,0.00,WeatherDisplay:10.37,2013-05-18 12:06:00,
2013-05-18 07:11:00,69.4,69.4,29.93,SSE,163,0.0,0.0,100,0.00,CLR,,0.00,WeatherDisplay:10.37,2013-05-18 12:11:00,
2013-05-18 07:16:00,69.6,69.6,29.93,SSE,163,0.0,0.0,100,0.00,CLR,,0.00,WeatherDisplay:10.37,2013-05-18 12:16:00,
2013-05-18 07:21:00,69.8,69.8,29.93,SSE,163,0.0,0.0,100,0.00,CLR,,0.00,WeatherDisplay:10.37,2013-05-18 12:21:00,
2013-05-18 07:26:00,69.8,69.8,29.93,SSE,163,0.0,0.0,100,0.00,CLR,,0.00,WeatherDisplay:10.37,2013-05-18 12:26:00,
2013-05-18 07:31:00,70.0,70.0,29.93,SSE,163,0.0,0.0,100,0.00,CLR,,0.00,WeatherDisplay:10.37,2013-05-18 12:31:00,
2013-05-18 07:36:00,70.0,70.0,29.96,SSE,163,0.0,0.0,100,0.00,CLR,,0.00,WeatherDisplay:10.37,2013-05-18 12:36:00,
2013-05-18 07:41:00,70.2,70.2,29.96,SSE,163,0.0,0.0,100,0.00,CLR,,0.00,WeatherDisplay:10.37,2013-05-18 12:41:00,
2013-05-18 07:46:00,70.2,70.2,29.96,SSE,163,0.0,0.0,100,0.00,CLR,,0.00,WeatherDisplay:10.37,2013-05-18 12:46:00,
2013-05-18 07:51:00,70.2,70.2,29.96,SSE,163,0.0,0.0,100,0.00,CLR,,0.00,WeatherDisplay:10.37,2013-05-18 12:51:00,
2013-05-18 07:56:00,70.2,70.2,29.96,SSE,164,0.0,0.0,100,0.00,CLR,,0.00,WeatherDisplay:10.37,2013-05-18 12:56:00,
2013-05-18 08:01:00,70.3,70.3,29.96,SSE,164,0.0,0.0,100,0.00,CLR,,0.00,WeatherDisplay:10.37,2013-05-18 13:01:00,
2013-05-18 08:06:00,70.5,70.5,29.96,SSE,164,0.0,0.0,100,0.00,CLR,,0.00,WeatherDisplay:10.37,2013-05-18 13:06:00,
2013-05-18 08:11:00,70.5,70.5,29.96,SSE,164,0.0,0.0,100,0.00,CLR,,0.00,WeatherDisplay:10.37,2013-05-18 13:11:00,
2013-05-18 08:16:00,70.5,70.5,29.96,SSE,165,0.0,0.0,100,0.00,CLR,,0.00,WeatherDisplay:10.37,2013-05-18 13:16:00,
2013-05-18 08:21:00,70.7,70.7,29.96,SSE,165,0.0,0.0,100,0.00,CLR,,0.00,WeatherDisplay:10.37,2013-05-18 13:21:00,
2013-05-18 08:26:00,70.7,70.7,29.96,SSE,165,0.0,0.0,100,0.00,CLR,,0.00,WeatherDisplay:10.37,2013-05-18 13:26:00,
2013-05-18 08:31:00,70.7,70.7,29.96,SSE,165,0.0,0.0,100,0.00,CLR,,0.00,WeatherDisplay:10.37,2013-05-18 13:31:00,
2013-05-18 08:36:00,70.9,70.9,29.96,SSE,165,0.0,0.0,100,0.00,CLR,,0.00,WeatherDisplay:10.37,2013-05-18 13:36:00,
2013-05-18 08:41:00,71.1,71.1,29.96,SSE,165,0.0,0.0,100,0.00,CLR,,0.00,WeatherDisplay:10.37,2013-05-18 13:41:00,
2013-05-18 08:46:00,71.1,71.1,29.96,SSE,165,0.0,0.0,100,0.00,CLR,,0.00,WeatherDisplay:10.37,2013-05-18 13:46:00,
2013-05-18 08:51:00,71.2,71.2,29.96,SSE,165,0.0,0.0,100,0.00,CLR,,0.00,WeatherDisplay:10.37,2013-05-18 13:51:00,
2013-05-18 08:56:00,71.2,71.2,29.96,SSE,165,0.0,0.0,100,0.00,CLR,,0.00,WeatherDisplay:10.37,2013-05-18 13:56:00,
2013-05-18 09:01:00,71.4,71.4,29.96,SSE,165,0.0,0.0,100,0.00,CLR,,0.00,WeatherDisplay:10.37,2013-05-18 14:01:00,
2013-05-18 09:06:00,71.6,71.6,29.96,SSE,160,0.0,0.0,100,0.00,CLR,,0.00,WeatherDisplay:10.37,2013-05-18 14:06:00,
2013-05-18 09:11:00,72.0,72.0,29.96,ESE,118,0.0,2.3,100,0.00,CLR,,0.00,WeatherDisplay:10.37,2013-05-18 14:11:00,
2013-05-18 09:16:00,72.0,72.0,29.96,ESE,118,0.0,0.0,100,0.00,CLR,,0.00,WeatherDisplay:10.37,2013-05-18 14:16:00,
2013-05-18 09:21:00,72.1,72.1,29.96,South,177,0.0,0.0,100,0.00,CLR,,0.00,WeatherDisplay:10.37,2013-05-18 14:21:00,
2013-05-18 09:26:00,72.3,72.3,29.96,South,177,0.0,0.0,100,0.00,CLR,,0.00,WeatherDisplay:10.37,2013-05-18 14:26:00,
2013-05-18 09:31:00,72.5,72.5,29.96,South,182,0.0,0.0,100,0.00,CLR,,0.00,WeatherDisplay:10.37,2013-05-18 14:31:00,
2013-05-18 09:36:00,72.7,72.7,29.96,South,182,0.0,0.0,100,0.00,CLR,,0.00,WeatherDisplay:10.37,2013-05-18 14:36:00,
2013-05-18 09:41:00,72.9,72.9,29.96,South,170,0.0,0.0,100,0.00,CLR,,0.00,WeatherDisplay:10.37,2013-05-18 14:41:00,
2013-05-18 09:46:00,73.0,73.0,29.96,South,170,0.0,0.0,100,0.00,CLR,,0.00,WeatherDisplay:10.37,2013-05-18 14:46:00,
2013-05-18 09:51:00,73.4,73.4,29.96,South,170,0.0,0.0,100,0.00,CLR,,0.00,WeatherDisplay:10.37,2013-05-18 14:51:00,
2013-05-18 09:56:00,73.8,73.8,29.96,South,170,0.0,0.0,100,0.00,CLR,,0.00,WeatherDisplay:10.37,2013-05-18 14:56:00,
2013-05-18 10:01:00,74.1,74.1,29.96,South,170,0.0,0.0,100,0.00,CLR,,0.00,WeatherDisplay:10.37,2013-05-18 15:01:00,
2013-05-18 10:06:00,74.3,74.3,29.96,South,175,0.0,2.3,100,0.00,CLR,,0.00,WeatherDisplay:10.37,2013-05-18 15:06:00,
2013-05-18 10:11:00,74.7,74.7,29.96,South,175,0.0,0.0,100,0.00,CLR,,0.00,WeatherDisplay:10.37,2013-05-18 15:11:00,
2013-05-18 10:16:00,75.0,75.0,29.96,SSE,157,0.0,0.0,100,0.00,CLR,,0.00,WeatherDisplay:10.37,2013-05-18 15:16:00,
2013-05-18 10:21:00,75.4,75.4,29.96,SSE,159,0.0,0.0,100,0.00,CLR,,0.00,WeatherDisplay:10.37,2013-05-18 15:21:00,
2013-05-18 10:26:00,75.7,75.7,29.96,East,90,0.0,0.0,100,0.00,CLR,,0.00,WeatherDisplay:10.37,2013-05-18 15:26:00,
2013-05-18 10:32:00,75.9,75.9,29.96,NW,323,0.0,2.3,100,0.00,CLR,,0.00,WeatherDisplay:10.37,2013-05-18 15:32:00,
2013-05-18 10:37:00,76.1,76.1,29.96,NW,317,0.0,0.0,100,0.00,CLR,,0.00,WeatherDisplay:10.37,2013-05-18 15:37:00,
2013-05-18 10:42:00,76.3,74.4,29.96,NE,56,0.0,2.3,94,0.00,CLR,,0.00,WeatherDisplay:10.37,2013-05-18 15:42:00,
2013-05-18 10:47:00,76.5,72.6,29.96,ENE,72,2.2,3.5,88,0.00,CLR,,0.00,WeatherDisplay:10.37,2013-05-18 15:47:00,
2013-05-18 10:52:00,76.6,70.7,29.96,ESE,102,0.0,0.0,82,0.00,CLR,,0.00,WeatherDisplay:10.37,2013-05-18 15:52:00,
2013-05-18 10:57:00,76.8,68.7,29.96,North,0,0.0,0.0,76,0.00,CLR,,0.00,WeatherDisplay:10.37,2013-05-18 15:57:00,
2013-05-18 11:02:00,76.8,67.9,29.96,North,357,0.0,0.0,74,0.00,CLR,,0.00,WeatherDisplay:10.37,2013-05-18 16:02:00,
2013-05-18 11:07:00,77.0,67.7,29.96,NNE,12,0.0,3.5,73,0.00,CLR,,0.00,WeatherDisplay:10.37,2013-05-18 16:07:00,
2013-05-18 11:12:00,77.2,67.5,29.96,SSE,156,0.0,3.5,72,0.00,CLR,,0.00,WeatherDisplay:10.37,2013-05-18 16:12:00,
2013-05-18 11:17:00,77.2,67.5,29.96,SSW,194,0.0,0.0,72,0.00,CLR,,0.00,WeatherDisplay:10.37,2013-05-18 16:17:00,
2013-05-18 11:22:00,77.2,67.5,29.96,South,191,0.0,0.0,72,0.00,CLR,,0.00,WeatherDisplay:10.37,2013-05-18 16:22:00,
2013-05-18 11:27:00,77.2,67.5,29.96,SE,142,0.0,0.0,72,0.00,CLR,,0.00,WeatherDisplay:10.37,2013-05-18 16:27:00,
2013-05-18 11:32:00,77.2,67.5,29.96,North,357,0.0,2.3,72,0.00,CLR,,0.00,WeatherDisplay:10.37,2013-05-18 16:32:00,
2013-05-18 11:37:00,77.2,67.5,29.93,NNE,25,2.2,3.5,72,0.00,CLR,,0.00,WeatherDisplay:10.37,2013-05-18 16:37:00,
2013-05-18 11:42:00,77.2,67.5,29.93,SSE,152,0.0,3.5,72,0.00,CLR,,0.00,WeatherDisplay:10.37,2013-05-18 16:42:00,
2013-05-18 11:47:00,77.2,67.5,29.93,South,176,0.0,2.3,72,0.00,CLR,,0.00,WeatherDisplay:10.37,2013-05-18 16:47:00,
2013-05-18 11:52:00,76.6,61.2,29.93,East,84,2.2,3.5,59,0.00,CLR,,0.00,WeatherDisplay:10.37,2013-05-18 16:52:00,
2013-05-18 11:57:00,76.6,61.2,29.93,North,2,0.0,0.0,59,0.00,CLR,,0.00,WeatherDisplay:10.37,2013-05-18 16:57:00,
2013-05-18 12:02:00,76.6,61.2,29.93,SSE,165,0.0,0.0,59,0.00,CLR,,0.00,WeatherDisplay:10.37,2013-05-18 17:02:00,
2013-05-18 12:07:00,77.2,62.2,29.93,SE,133,0.0,3.5,60,0.00,CLR,,0.00,WeatherDisplay:10.37,2013-05-18 17:07:00,
2013-05-18 12:12:00,77.2,62.2,29.93,SSE,154,0.0,3.5,60,0.00,CLR,,0.00,WeatherDisplay:10.37,2013-05-18 17:12:00,
2013-05-18 12:17:00,77.2,62.2,29.93,ENE,67,2.2,3.5,60,0.00,CLR,,0.00,WeatherDisplay:10.37,2013-05-18 17:17:00,
2013-05-18 12:22:00,77.2,62.2,29.93,South,189,0.0,3.5,60,0.00,CLR,,0.00,WeatherDisplay:10.37,2013-05-18 17:22:00,
2013-05-18 12:27:00,77.2,62.2,29.93,North,357,0.0,0.0,60,0.00,CLR,,0.00,WeatherDisplay:10.37,2013-05-18 17:27:00,
2013-05-18 12:33:00,77.2,62.2,29.93,SW,230,0.0,3.5,60,0.00,CLR,,0.00,WeatherDisplay:10.37,2013-05-18 17:33:00,
2013-05-18 12:38:00,77.2,62.2,29.93,NNW,339,0.0,3.5,60,0.00,CLR,,0.00,WeatherDisplay:10.37,2013-05-18 17:38:00,
2013-05-18 12:43:00,77.2,62.2,29.93,NNW,332,0.0,0.0,60,0.00,CLR,,0.00,WeatherDisplay:10.37,2013-05-18 17:43:00,
2013-05-18 12:48:00,77.2,62.2,29.93,NNW,341,0.0,3.5,60,0.00,CLR,,0.00,WeatherDisplay:10.37,2013-05-18 17:48:00,
2013-05-18 12:53:00,77.2,62.2,29.93,South,176,0.0,3.5,60,0.00,CLR,,0.00,WeatherDisplay:10.37,2013-05-18 17:53:00,
2013-05-18 12:58:00,77.4,61.4,29.93,SSE,167,0.0,0.0,58,0.00,CLR,,0.00,WeatherDisplay:10.37,2013-05-18 17:58:00,
2013-05-18 13:03:00,77.4,61.4,29.93,SSW,200,0.0,0.0,58,0.00,CLR,,0.00,WeatherDisplay:10.37,2013-05-18 18:03:00,
2013-05-18 13:08:00,77.4,61.4,29.93,SSW,195,0.0,3.5,58,0.00,CLR,,0.00,WeatherDisplay:10.37,2013-05-18 18:08:00,
2013-05-18 13:13:00,77.4,61.4,29.93,SW,235,0.0,0.0,58,0.00,CLR,,0.00,WeatherDisplay:10.37,2013-05-18 18:13:00,
2013-05-18 13:18:00,77.4,61.4,29.93,SSW,209,0.0,3.5,58,0.00,CLR,,0.00,WeatherDisplay:10.37,2013-05-18 18:18:00,
2013-05-18 13:23:00,77.0,61.1,29.93,South,175,0.0,0.0,58,0.00,CLR,,0.00,WeatherDisplay:10.37,2013-05-18 18:23:00,
2013-05-18 13:28:00,77.0,61.1,29.93,SSE,152,0.0,2.3,58,0.00,CLR,,0.00,WeatherDisplay:10.37,2013-05-18 18:28:00,
2013-05-18 22:12:00,76.3,66.2,29.87,WNW,283,0.0,0.0,71,0.00,CLR,,0.00,WeatherDisplay:10.37,2013-05-19 03:12:00,
2013-05-18 22:17:00,76.3,66.2,29.87,WNW,283,0.0,0.0,71,0.00,CLR,,0.00,WeatherDisplay:10.37,2013-05-19 03:17:00,
2013-05-18 22:22:00,76.1,66.0,29.87,WNW,283,0.0,0.0,71,0.00,CLR,,0.00,WeatherDisplay:10.37,2013-05-19 03:22:00,
2013-05-18 22:27:00,75.9,65.8,29.87,WNW,283,0.0,0.0,71,0.00,CLR,,0.00,WeatherDisplay:10.37,2013-05-19 03:27:00,
2013-05-18 22:32:00,75.9,65.8,29.87,WNW,283,0.0,0.0,71,0.00,CLR,,0.00,WeatherDisplay:10.37,2013-05-19 03:32:00,
2013-05-18 22:37:00,75.7,65.7,29.87,WNW,283,0.0,0.0,71,0.00,CLR,,0.00,WeatherDisplay:10.37,2013-05-19 03:37:00,
2013-05-18 22:42:00,75.7,66.1,29.87,WNW,283,0.0,0.0,72,0.00,CLR,,0.00,WeatherDisplay:10.37,2013-05-19 03:42:00,
2013-05-18 22:47:00,75.6,65.9,29.87,WNW,283,0.0,0.0,72,0.00,CLR,,0.00,WeatherDisplay:10.37,2013-05-19 03:47:00,
2013-05-18 22:52:00,75.4,65.7,29.84,WNW,283,0.0,0.0,72,0.00,CLR,,0.00,WeatherDisplay:10.37,2013-05-19 03:52:00,
2013-05-18 22:57:00,75.2,65.6,29.84,WNW,283,0.0,0.0,72,0.00,CLR,,0.00,WeatherDisplay:10.37,2013-05-19 03:57:00,
2013-05-18 23:01:00,75.2,65.9,29.84,WNW,283,0.0,0.0,73,0.00,CLR,,0.00,WeatherDisplay:10.37,2013-05-19 04:01:00,
2013-05-18 23:02:00,75.2,65.9,29.84,WNW,283,0.0,0.0,73,0.00,CLR,,0.00,WeatherDisplay:10.37,2013-05-19 04:02:00,
2013-05-18 23:04:00,75.2,65.9,29.84,WNW,283,0.0,0.0,73,0.00,CLR,,0.00,WeatherDisplay:10.37,2013-05-19 04:04:00,
2013-05-18 23:09:00,75.0,65.8,29.84,WNW,283,0.0,0.0,73,0.00,CLR,,0.00,WeatherDisplay:10.37,2013-05-19 04:09:00,
2013-05-18 23:14:00,75.0,66.2,29.84,WNW,283,0.0,0.0,74,0.00,CLR,,0.00,WeatherDisplay:10.37,2013-05-19 04:14:00,
2013-05-18 23:19:00,75.0,66.2,29.84,WNW,283,0.0,0.0,74,0.00,CLR,,0.00,WeatherDisplay:10.37,2013-05-19 04:19:00,
2013-05-18 23:24:00,74.8,66.4,29.84,WNW,283,0.0,0.0,75,0.00,CLR,,0.00,WeatherDisplay:10.37,2013-05-19 04:24:00,
2013-05-18 23:29:00,74.8,66.4,29.84,WNW,283,0.0,0.0,75,0.00,CLR,,0.00,WeatherDisplay:10.37,2013-05-19 04:29:00,
2013-05-18 23:34:00,75.0,66.6,29.84,WNW,283,0.0,0.0,75,0.00,CLR,,0.00,WeatherDisplay:10.37,2013-05-19 04:34:00,
2013-05-18 23:39:00,74.8,66.4,29.84,WNW,283,0.0,0.0,75,0.00,CLR,,0.00,WeatherDisplay:10.37,2013-05-19 04:39:00,
2013-05-18 23:44:00,74.7,66.6,29.84,WNW,283,0.0,0.0,76,0.00,CLR,,0.00,WeatherDisplay:10.37,2013-05-19 04:44:00,
2013-05-18 23:49:00,74.7,67.0,29.84,WNW,283,0.0,0.0,77,0.00,CLR,,0.00,WeatherDisplay:10.37,2013-05-19 04:49:00,
2013-05-18 23:54:00,74.7,67.0,29.84,WNW,283,0.0,0.0,77,0.00,CLR,,0.00,WeatherDisplay:10.37,2013-05-19 04:54:00,
2013-05-18 23:59:00,74.7,67.0,29.84,WNW,283,0.0,0.0,77,0.00,CLR,,0.00,WeatherDisplay:10.37,2013-05-19 04:59:00,